User: anonymous   Login
Location: Fours
(44.3167°N, 6.7000°E)
Time: 16:36:21
(UTC+00:00)
Language:

Cosmos 1535 Rocket - Orbit

View from above orbital plane
View from above orbital plane
View from above satellite
View from above satellite

Ground track
Ground track

The orbit data is extracted from the following two-line orbital elements,

1 14680U 84010B   21058.88779395  .00000009  00000-0 -58543-5 0  9994
2 14680  82.9557 119.2323 0036751 232.3808 301.1326 13.76517794861759
Epoch (UTC): 27 February 2021 21:18:25
Eccentricity: 0.0036751
inclination: 82.9557°
perigee height: 949 km
apogee height: 1003 km
right ascension of ascending node: 119.2323°
argument of perigee: 232.3808°
revolutions per day: 13.76517794
mean anomaly at epoch: 301.1326°
orbit number at epoch: 86175

The dashed part of the orbit path shows where the satellite is in the earth's shadow,  

DLR